CZ-3C DEB, 39348

Orbit data source: Space-Track

CZ-3C DEB, 39348 is space debris in HEO originally from a launch on Sun, 31 Oct 2010 UTC launched from the Xichang Space Center, China (XSC). Debris objects in space refer to the collection of defunct objects orbiting the Earth. Examples of debris include non-operational satellites, rocket bodies, and fragments generated from explosions, collisions, or faulty payload assembly.

Loading next visibility...
Identifier
39348, 2010-057N
Orbit
HEO
Country
Flag of CNCN / PRC
Related business
Manufacturer
CALT
Mission
Spacecraft
Bus & Motor
Unknown
Mass
Unknown
Launch date (UTC)
2010-10-31 (15 years ago)
Launch vehicle
Unknown
Launch site
Xichang Space Center, China (XSC)
Object type
Payload
Rocket body
Debris
Shape & HBR
Unknown shape, 2.3 m
Radar Cross Section
Large (>1 m²)

Expand to show TLE details & history
Last TLE update: 16 hours ago

TLE from 16 hours ago
0 CZ-3C DEB
1 39348U 10057N   25293.45416053  .00000282  00000-0  12746-2 0  9993
2 39348  20.6472  54.6236 7221915 236.7316  33.7616  2.26040757 98973
Epoch: 2025-10-20T10:53Z
TLE epoch observation values (Epoch: 2025-10-20T10:53:59.469Z)
Latitude
-0.00002°
Longitude
-138.13954°
Altitude
13,083.55 km
Speed
4.971 km/s
True Right ascension
03h 38m 03s
True Declination
0° 00' 00"
Sunlit
Object was in daylight at epoch
Visualization orbit readout
Latitude
Unknown
Longitude
Unknown
Altitude
Unknown
Speed
Unknown
Apparent Right ascension
Unknown
Apparent Declination
Unknown
Sunlit
N/A
Visualization observer readout
Local Sidereal Time
21:39:13
Azimuth
Unknown
Elevation
Unknown
Doppler factor
Unknown
Orbital elements
Apogee altitude
35,866.4 km
Perigee altitude
436.373 km
Semi-major axis
24,529.524 km
Eccentricity
0.72219
Inclination
20.6472°
RAAN
54.6236°
Arg. of periapsis
236.7316°
True anomaly
123.38239°
Mean anomaly
33.7616°
Eccentric anomaly
73.41962°
Mean motion
0.56495 °/min
Orbital period
637.23 mins
BSTAR
0.0012746
Loading maneuver chart data...
Computing Atmospheric mass density...
Loading historical data...
Loading historical data...
Loading historical data...
Loading historical data...
Loading historical data...
Loading historical data...
Loading historical data...

Documentation

Showing up to 5 results
|